Weather History for Kake, AK

Change the Weather History Date:

Monday, January 21, 2013

  Actual Average Record
Temperature  
Mean Temperature 38 °F -  
Max Temperature 42 °F 33 °F 46 °F (2004)
Min Temperature 33 °F 27 °F 17 °F (1999)
Degree Days  
Heating Degree Days 28    
Moisture  
Dew Point 35 °F    
Average Humidity 83    
Maximum Humidity 93    
Minimum Humidity 76    
Precipitation  
Precipitation 0.00 in - - ()
Sea Level Pressure  
Sea Level Pressure 30.05 in    
Wind  
Wind Speed 8 mph (ESE)    
Max Wind Speed 12 mph    
Max Gust Speed 16 mph    
Visibility 10 miles    
Events      
Averages and records for this station are not official NWS values.
T = Trace of Precipitation, MM = Missing Value Source: NWS Daily Summary

Daily Weather History Graph

Daily Weather History Graph

Search for Another Location

Airport:

Trip Planner

Search our weather history database for the weather conditions in past years. The results will help you decide how hot, cold, wet, or windy it might be!

Date:

Astronomy

Jan. 21, 2013 Rise Set
Actual Time 8:13 AM AKST 4:01 PM AKST
Civil Twilight 7:28 AM AKST 4:46 PM AKST
Nautical Twilight 6:40 AM AKST 5:33 PM AKST
Astronomical Twilight 5:55 AM AKST 6:19 PM AKST
Moon 11:40 AM AKST (1/21) 3:52 AM AKST (1/21)
Length of Visible Light 9h 17m
Length of Day
7h 48m
Waxing Gibbous, 76% of the Moon is Illuminated
Jan 21
Waxing Gibbous
Jan 26
Full
Feb 3
Last Quarter
Feb 9
New
Feb 17
First Quarter

Hourly Weather History & Observations

Time (AKST) Temp. Windchill Dew Point Humidity Pressure Visibility Wind Dir Wind Speed Gust Speed Precip Events Conditions
12:16 AM 41.0 °F 35.2 °F 35.6 °F 81% 30.18 in 10.0 mi ESE 9.2 mph - N/A   Overcast
12:36 AM 42.8 °F 36.6 °F 35.6 °F 76% 30.17 in 10.0 mi ESE 11.5 mph - N/A   Overcast
12:56 AM 42.8 °F 37.0 °F 35.6 °F 76% 30.18 in 10.0 mi ESE 10.4 mph - N/A   Overcast
1:16 AM 42.8 °F 37.0 °F 35.6 °F 76% 30.18 in 10.0 mi SE 10.4 mph - N/A   Overcast
1:36 AM 41.0 °F 35.2 °F 35.6 °F 81% 30.17 in 10.0 mi SE 9.2 mph - N/A   Overcast
1:56 AM 41.0 °F 35.8 °F 35.6 °F 81% 30.17 in 10.0 mi SE 8.1 mph - N/A   Overcast
2:16 AM 41.0 °F 34.3 °F 35.6 °F 81% 30.17 in 10.0 mi SE 11.5 mph - N/A   Overcast
2:36 AM 41.0 °F 35.2 °F 35.6 °F 81% 30.16 in 10.0 mi ESE 9.2 mph - N/A   Overcast
2:56 AM 41.0 °F 35.2 °F 35.6 °F 81% 30.15 in 10.0 mi ESE 9.2 mph - N/A   Overcast
3:16 AM 41.0 °F 35.2 °F 35.6 °F 81% 30.15 in 10.0 mi ESE 9.2 mph - N/A   Overcast
3:36 AM 41.0 °F 35.2 °F 35.6 °F 81% 30.14 in 10.0 mi ESE 9.2 mph - N/A   Overcast
3:56 AM 41.0 °F 35.8 °F 35.6 °F 81% 30.14 in 10.0 mi ESE 8.1 mph - N/A   Overcast
4:16 AM 41.0 °F 36.4 °F 35.6 °F 81% 30.15 in 10.0 mi SE 6.9 mph - N/A   Overcast
4:36 AM 42.8 °F 37.5 °F 35.6 °F 76% 30.14 in 10.0 mi ESE 9.2 mph - N/A   Overcast
4:56 AM 41.0 °F 35.8 °F 35.6 °F 81% 30.13 in 10.0 mi ESE 8.1 mph - N/A   Overcast
5:16 AM 41.0 °F 35.2 °F 35.6 °F 81% 30.13 in 10.0 mi ESE 9.2 mph 16.1 mph N/A   Overcast
5:36 AM 41.0 °F 34.7 °F 35.6 °F 81% 30.13 in 10.0 mi ESE 10.4 mph - N/A   Overcast
5:56 AM 41.0 °F 34.7 °F 35.6 °F 81% 30.12 in 10.0 mi ESE 10.4 mph - N/A   Overcast
6:16 AM 41.0 °F 34.3 °F 35.6 °F 81% 30.12 in 10.0 mi ESE 11.5 mph 16.1 mph N/A   Overcast
6:36 AM 41.0 °F 35.8 °F 35.6 °F 81% 30.12 in 10.0 mi ESE 8.1 mph - N/A   Overcast
6:56 AM 41.0 °F 34.7 °F 35.6 °F 81% 30.12 in 10.0 mi East 10.4 mph - N/A   Overcast
7:16 AM 41.0 °F 35.2 °F 35.6 °F 81% 30.11 in 10.0 mi ESE 9.2 mph - N/A   Overcast
7:36 AM 41.0 °F 35.2 °F 35.6 °F 81% 30.11 in 10.0 mi ESE 9.2 mph - N/A   Overcast
7:56 AM 41.0 °F 35.2 °F 35.6 °F 81% 30.11 in 10.0 mi ESE 9.2 mph - N/A   Overcast
8:16 AM 41.0 °F 36.4 °F 35.6 °F 81% 30.11 in 10.0 mi ESE 6.9 mph - N/A   Overcast
8:36 AM 41.0 °F 35.2 °F 35.6 °F 81% 30.12 in 10.0 mi ESE 9.2 mph - N/A   Overcast
8:56 AM 41.0 °F 37.1 °F 37.4 °F 87% 30.12 in 10.0 mi East 5.8 mph - N/A   Overcast
9:16 AM 41.0 °F 35.8 °F 35.6 °F 81% 30.12 in 10.0 mi ESE 8.1 mph - N/A   Overcast
9:36 AM 41.0 °F 35.8 °F 37.4 °F 87% 30.11 in 10.0 mi ESE 8.1 mph - N/A   Overcast
9:56 AM 41.0 °F 35.2 °F 37.4 °F 87% 30.11 in 10.0 mi ESE 9.2 mph - N/A   Overcast
10:16 AM 41.0 °F 35.2 °F 37.4 °F 87% 30.11 in 10.0 mi ESE 9.2 mph - N/A   Overcast
10:36 AM 41.0 °F 35.8 °F 37.4 °F 87% 30.11 in 10.0 mi ESE 8.1 mph - N/A   Overcast
10:56 AM 41.0 °F 37.1 °F 37.4 °F 87% 30.11 in 10.0 mi ESE 5.8 mph - N/A   Overcast
11:16 AM 42.8 °F 39.3 °F 37.4 °F 81% 30.10 in 10.0 mi ESE 5.8 mph - N/A   Overcast
11:36 AM 42.8 °F 38.6 °F 37.4 °F 81% 30.09 in 10.0 mi ESE 6.9 mph - N/A   Mostly Cloudy
11:56 AM 42.8 °F 38.6 °F 37.4 °F 81% 30.09 in 10.0 mi ESE 6.9 mph - N/A   Mostly Cloudy
12:16 PM 42.8 °F 38.6 °F 37.4 °F 81% 30.08 in 10.0 mi ESE 6.9 mph - N/A   Mostly Cloudy
12:36 PM 42.8 °F 40.1 °F 37.4 °F 81% 30.08 in 10.0 mi ESE 4.6 mph - N/A   Overcast
12:56 PM 42.8 °F 39.3 °F 37.4 °F 81% 30.07 in 10.0 mi SE 5.8 mph - N/A   Overcast
1:16 PM 42.8 °F 40.1 °F 37.4 °F 81% 30.06 in 10.0 mi ESE 4.6 mph - N/A   Overcast
1:36 PM 42.8 °F 40.1 °F 37.4 °F 81% 30.05 in 10.0 mi ESE 4.6 mph - N/A   Overcast
1:56 PM 42.8 °F 41.1 °F 35.6 °F 76% 30.04 in 10.0 mi ESE 3.5 mph - N/A   Overcast
2:16 PM 42.8 °F 39.3 °F 35.6 °F 76% 30.04 in 10.0 mi ESE 5.8 mph - N/A   Overcast
2:36 PM 42.8 °F 41.1 °F 35.6 °F 76% 30.04 in 10.0 mi ESE 3.5 mph - N/A   Overcast
2:56 PM 42.8 °F - 35.6 °F 76% 30.03 in 10.0 mi Calm Calm - N/A   Overcast
3:16 PM 42.8 °F - 35.6 °F 76% 30.02 in 10.0 mi Calm Calm - N/A   Overcast
3:36 PM 42.8 °F - 35.6 °F 76% 30.01 in 10.0 mi Calm Calm - N/A   Overcast
3:56 PM 39.2 °F 37.0 °F 35.6 °F 87% 30.00 in 10.0 mi ESE 3.5 mph - N/A   Partly Cloudy
4:16 PM 37.4 °F 33.8 °F 33.8 °F 87% 29.99 in 10.0 mi East 4.6 mph - N/A   Clear
4:36 PM 37.4 °F 32.8 °F 33.8 °F 87% 29.99 in 10.0 mi East 5.8 mph - N/A   Clear
4:56 PM 37.4 °F 32.8 °F 33.8 °F 87% 29.98 in 10.0 mi ENE 5.8 mph - N/A   Clear
5:16 PM 37.4 °F 32.8 °F 33.8 °F 87% 29.98 in 10.0 mi ENE 5.8 mph - N/A   Clear
5:36 PM 37.4 °F 31.4 °F 33.8 °F 87% 29.97 in 10.0 mi NE 8.1 mph - N/A   Clear
5:56 PM 37.4 °F 30.8 °F 33.8 °F 87% 29.96 in 10.0 mi NE 9.2 mph - N/A   Clear
6:16 PM 39.2 °F 34.2 °F 35.6 °F 87% 29.95 in 10.0 mi ENE 6.9 mph - N/A   Clear
6:36 PM 37.4 °F 32.1 °F 33.8 °F 87% 29.96 in 10.0 mi East 6.9 mph - N/A   Partly Cloudy
6:56 PM 37.4 °F - 33.8 °F 87% 29.95 in 10.0 mi Calm Calm - N/A   Clear
7:16 PM 37.4 °F 33.8 °F 35.6 °F 93% 29.94 in 10.0 mi NE 4.6 mph - N/A   Partly Cloudy
7:36 PM 37.4 °F 32.1 °F 35.6 °F 93% 29.93 in 10.0 mi ENE 6.9 mph - N/A   Partly Cloudy
7:56 PM 37.4 °F 33.8 °F 33.8 °F 87% 29.92 in 10.0 mi East 4.6 mph - N/A   Clear
8:16 PM 37.4 °F - 33.8 °F 87% 29.91 in 10.0 mi Calm Calm - N/A   Clear
8:36 PM 37.4 °F - 33.8 °F 87% 29.91 in 10.0 mi Calm Calm - N/A   Clear
8:56 PM 37.4 °F - 33.8 °F 87% 29.91 in 10.0 mi Calm Calm - N/A   Clear
9:16 PM 37.4 °F - 33.8 °F 87% 29.91 in 10.0 mi Calm Calm - N/A   Clear
9:36 PM 35.6 °F - 33.8 °F 93% 29.91 in 10.0 mi Calm Calm - N/A   Partly Cloudy
9:56 PM 33.8 °F 29.6 °F 30.2 °F 87% 29.90 in 10.0 mi East 4.6 mph - N/A   Partly Cloudy
10:16 PM 33.8 °F 30.8 °F 30.2 °F 87% 29.89 in 10.0 mi East 3.5 mph - N/A   Clear
10:36 PM 35.6 °F - 33.8 °F 93% 29.88 in 10.0 mi Calm Calm - N/A   Clear
10:56 PM 35.6 °F - 32.0 °F 87% 29.88 in 10.0 mi Calm Calm - N/A   Clear
11:16 PM 33.8 °F 30.8 °F 30.2 °F 87% 29.88 in 10.0 mi East 3.5 mph - N/A   Clear
11:36 PM 33.8 °F 30.8 °F 30.2 °F 87% 29.88 in 10.0 mi East 3.5 mph - N/A   Partly Cloudy
11:56 PM 35.6 °F 32.8 °F 33.8 °F 93% 29.87 in 10.0 mi ENE 3.5 mph - N/A   Clear